Paris - Charles De Gaulle, France

8:05 PM CEST on July 27, 2016 (GMT +0200)
Charles de Gaulle

Weather History for LFPG - March, 2013

Change the Weather History Date:

Sunday, March 31, 2013

  Actual Average Record
Temperature  
Mean Temperature 34 °F -  
Max Temperature 41 °F 58 °F 69 °F (1998)
Min Temperature 26 °F 42 °F 26 °F (2013)
Degree Days  
Heating Degree Days 32    
Moisture  
Dew Point 24 °F    
Average Humidity 69    
Maximum Humidity 93    
Minimum Humidity 49    
Precipitation  
Precipitation 0.00 in - - ()
Sea Level Pressure  
Sea Level Pressure 29.86 in    
Wind  
Wind Speed 8 mph ()    
Max Wind Speed 13 mph    
Max Gust Speed 24 mph    
Visibility 4.5 miles    
Events      
Averages and records for this station are not official NWS values.
T = Trace of Precipitation, MM = Missing Value Source: Averaged Metar Reports

Daily Weather History Graph

Daily Weather History Graph

Search for Another Location

Airport or City:

Trip Planner

Search our weather history database for the weather conditions in past years. The results will help you decide how hot, cold, wet, or windy it might be!

Date:

Astronomy

Mar. 31, 2013 Rise Set
Actual Time 7:29 AM CEST 8:19 PM CEST
Civil Twilight 6:57 AM CEST 8:51 PM CEST
Nautical Twilight 6:19 AM CEST 9:30 PM CEST
Astronomical Twilight 5:38 AM CEST 10:10 PM CEST
Moon 12:29 AM CET (3/31) 9:41 AM CEST (3/31)
Length of Visible Light 13h 54m
Length of Day
12h 50m
Waning Gibbous, 80% of the Moon is Illuminated
Mar 31
Waning Gibbous
Apr 3
Last Quarter
Apr 10
New
Apr 18
First Quarter
Apr 25
Full

Hourly Weather History & Observations

Time (CEST) Temp. Windchill Dew Point Humidity Pressure Visibility Wind Dir Wind Speed Gust Speed Precip Events Conditions
12:00 AM 32.0 °F 24.8 °F 23.0 °F 69% 29.86 in 2.8 mi North 8.1 mph - N/A   Mostly Cloudy
12:30 AM 30.2 °F 22.6 °F 23.0 °F 75% 29.86 in 2.8 mi North 8.1 mph - N/A   Mostly Cloudy
1:00 AM 30.2 °F 22.6 °F 23.0 °F 75% 29.86 in 2.8 mi North 8.1 mph - N/A   Mostly Cloudy
1:30 AM 30.2 °F 21.9 °F 24.8 °F 80% 29.86 in 2.5 mi NNE 9.2 mph - N/A   Mostly Cloudy
3:00 AM 30.2 °F 22.6 °F 24.8 °F 80% 29.86 in 2.5 mi NNE 8.1 mph - N/A   Mostly Cloudy
3:30 AM 30.2 °F 22.6 °F 24.8 °F 80% 29.86 in 2.2 mi NNE 8.1 mph - N/A   Partly Cloudy
4:00 AM 30.2 °F 23.4 °F 24.8 °F 80% 29.86 in 2.2 mi NNE 6.9 mph - N/A   Mist
4:30 AM 28.4 °F 21.2 °F 24.8 °F 86% 29.86 in 1.9 mi North 6.9 mph - N/A   Mist
5:00 AM 28.4 °F 22.2 °F 24.8 °F 86% 29.86 in 1.9 mi North 5.8 mph - N/A   Mist
5:30 AM 28.4 °F 22.2 °F 24.8 °F 86% 29.86 in 1.9 mi North 5.8 mph - N/A   Mist
6:00 AM 28.4 °F 22.2 °F 24.8 °F 86% 29.86 in 1.9 mi North 5.8 mph - N/A   Mist
6:30 AM 28.4 °F 22.2 °F 24.8 °F 86% 29.86 in 1.9 mi North 5.8 mph - N/A   Mist
7:00 AM 28.4 °F 21.2 °F 24.8 °F 86% 29.89 in 1.9 mi North 6.9 mph - N/A   Mist
7:30 AM 26.6 °F 19.1 °F 24.8 °F 93% 29.89 in 1.6 mi Variable 6.9 mph - N/A   Mist
8:00 AM 28.4 °F 24.6 °F 24.8 °F 86% 29.89 in 1.6 mi Variable 3.5 mph - N/A   Mist
8:30 AM 28.4 °F 23.3 °F 26.6 °F 93% 29.89 in 1.6 mi Variable 4.6 mph - N/A   Mist
9:00 AM 30.2 °F 23.4 °F 26.6 °F 86% 29.89 in 1.9 mi Variable 6.9 mph - N/A   Mist
9:30 AM 30.2 °F 21.9 °F 28.4 °F 93% 29.89 in 2.8 mi NNE 9.2 mph - N/A   Mist
10:00 AM 32.0 °F 23.6 °F 28.4 °F 87% 29.89 in 3.7 mi NNE 10.4 mph 23.0 mph N/A   Unknown
10:30 AM 33.8 °F 25.8 °F 26.6 °F 75% 29.89 in 5.0 mi NNE 10.4 mph - N/A   Partly Cloudy
11:00 AM 33.8 °F 26.4 °F 26.6 °F 75% 29.92 in 5.6 mi NNE 9.2 mph - N/A   Mostly Cloudy
11:30 AM 35.6 °F 27.1 °F 26.6 °F 70% 29.92 in 5.6 mi ENE 12.7 mph - N/A   Mostly Cloudy
12:00 PM 35.6 °F 28.0 °F 26.6 °F 70% 29.92 in 6.2 mi NE 10.4 mph - N/A   Mostly Cloudy
12:30 PM 35.6 °F 27.5 °F 24.8 °F 65% 29.89 in 6.2 mi ENE 11.5 mph - N/A   Mostly Cloudy
1:00 PM 35.6 °F 27.5 °F 24.8 °F 65% 29.89 in 6.2 mi ENE 11.5 mph - N/A   Mostly Cloudy
1:30 PM 37.4 °F 30.8 °F 24.8 °F 60% 29.89 in 6.2 mi ENE 9.2 mph - N/A   Mostly Cloudy
2:00 PM 37.4 °F 31.4 °F 24.8 °F 60% 29.89 in 6.2 mi NE 8.1 mph - N/A   Mostly Cloudy
2:30 PM 39.2 °F 33.0 °F 23.0 °F 52% 29.89 in 6.2 mi East 9.2 mph - N/A   Mostly Cloudy
3:00 PM 41.0 °F 36.4 °F 24.8 °F 53% 29.86 in 6.2 mi ENE 6.9 mph - N/A   Mostly Cloudy
3:30 PM 39.2 °F 32.5 °F 23.0 °F 52% 29.86 in 6.2 mi NE 10.4 mph - N/A   Mostly Cloudy
4:00 PM 39.2 °F 33.0 °F 21.2 °F 49% 29.86 in 6.2 mi East 9.2 mph - N/A   Mostly Cloudy
4:30 PM 41.0 °F 36.4 °F 23.0 °F 49% 29.86 in 6.2 mi North 6.9 mph - N/A   Mostly Cloudy
5:00 PM 39.2 °F 33.6 °F 23.0 °F 52% 29.86 in 6.2 mi NE 8.1 mph - N/A   Mostly Cloudy
5:30 PM 39.2 °F 33.0 °F 23.0 °F 52% 29.86 in 6.2 mi NE 9.2 mph - N/A   Mostly Cloudy
6:00 PM 41.0 °F 35.8 °F 23.0 °F 49% 29.83 in 6.2 mi NE 8.1 mph - N/A   Mostly Cloudy
6:30 PM 39.2 °F 32.5 °F 23.0 °F 52% 29.83 in 6.2 mi NE 10.4 mph - N/A   Mostly Cloudy
7:00 PM 39.2 °F 33.0 °F 21.2 °F 49% 29.83 in 6.2 mi NE 9.2 mph - N/A   Mostly Cloudy
7:30 PM 39.2 °F 33.0 °F 23.0 °F 52% 29.83 in 6.2 mi NE 9.2 mph - N/A   Mostly Cloudy
8:00 PM 37.4 °F 30.8 °F 23.0 °F 56% 29.83 in 6.2 mi NE 9.2 mph - N/A   Mostly Cloudy
8:30 PM 37.4 °F 30.3 °F 23.0 °F 56% 29.83 in 6.2 mi NE 10.4 mph - N/A   Mostly Cloudy
9:00 PM 37.4 °F 30.3 °F 23.0 °F 56% 29.83 in 6.2 mi NE 10.4 mph - N/A   Mostly Cloudy
9:30 PM 35.6 °F 27.5 °F 23.0 °F 60% 29.83 in 6.2 mi NE 11.5 mph - N/A   Mostly Cloudy
10:00 PM 35.6 °F 28.0 °F 23.0 °F 60% 29.83 in 6.2 mi NE 10.4 mph 24.2 mph N/A   Mostly Cloudy
10:30 PM 35.6 °F 28.6 °F 23.0 °F 60% 29.83 in 6.2 mi NE 9.2 mph - N/A   Mostly Cloudy
11:00 PM 35.6 °F 28.6 °F 23.0 °F 60% 29.83 in 6.2 mi NE 9.2 mph - N/A   Mostly Cloudy
11:30 PM 33.8 °F 27.0 °F 24.8 °F 70% 29.80 in 6.2 mi NE 8.1 mph - N/A   Mostly Cloudy
12:00 AM 33.8 °F 25.8 °F 24.8 °F 70% 29.80 in 5.6 mi NE 10.4 mph - N/A   Mostly Cloudy
12:30 AM 32.0 °F 23.6 °F 24.8 °F 75% 29.80 in 5.0 mi NE 10.4 mph - N/A   Mostly Cloudy